Location: Newark
(21.1200°N, 73.4000°E)
Time: 17:20:05
(UTC+00:00)

Transit 2A Rocket - All Passes

Search period start: 19 January 2020 00:00
Search period end: 29 January 2020 00:00
Orbit: 593 x 910 km, 66.7° (Epoch: 18 January)

Date Brightness Start Highest point End Pass type
(mag) Time Alt. Az. Time Alt. Az. Time Alt. Az.
19 Jan - 01:35:36 10° SW 01:39:31 29° WNW 01:43:17 10° N daylight
19 Jan - 10:28:47 10° NNE 10:32:18 18° ENE 10:36:00 10° ESE daylight
19 Jan - 12:09:58 10° NW 12:14:46 37° WSW 12:19:56 10° S daylight
20 Jan - 00:52:31 10° SSW 00:56:59 67° WNW 01:01:16 10° NNE visible
20 Jan - 11:27:07 10° NNW 11:32:18 75° WSW 11:37:56 10° SSE daylight
21 Jan - 00:10:08 10° S 00:14:31 51° ESE 00:18:43 10° NE visible
21 Jan - 10:44:44 10° N 10:49:48 55° ENE 10:55:18 10° SE daylight
21 Jan - 12:30:11 10° W 12:32:04 12° WSW 12:33:59 10° SW daylight
21 Jan - 23:28:33 10° SSE 23:32:05 23° ESE 23:35:30 10° ENE visible
22 Jan - 01:11:24 10° WSW 01:14:26 18° WNW 01:17:24 10° NNW visible
22 Jan - 10:02:49 10° N 10:07:15 28° ENE 10:11:59 10° ESE daylight
22 Jan - 11:45:25 10° NW 11:49:38 24° WSW 11:54:07 10° SSW daylight
23 Jan - 00:27:42 10° SW 00:31:51 38° WNW 00:35:52 10° N visible
23 Jan - 09:21:46 10° NNE 09:24:37 15° ENE 09:27:36 10° E daylight
23 Jan - 11:02:09 10° NW 11:07:10 47° WSW 11:12:38 10° S daylight
23 Jan - 23:44:52 10° SSW 23:49:21 90° NNW 23:53:39 10° NNE visible
24 Jan - 10:19:28 10° NNW 10:24:41 87° ENE 10:30:24 10° SSE daylight
24 Jan - 23:02:44 10° S 23:06:54 38° ESE 23:10:54 10° NE visible
25 Jan - 00:48:21 10° WNW 00:49:25 11° WNW 00:50:27 10° NW visible
25 Jan - 09:37:14 10° N 09:42:11 44° ENE 09:47:33 10° SE daylight
25 Jan - 11:21:23 10° WNW 11:24:29 16° WSW 11:27:43 10° SW daylight
25 Jan - 22:21:33 10° SSE 22:24:29 17° ESE 22:27:21 10° ENE night (unlit)
26 Jan - 00:03:14 10° WSW 00:06:45 23° WNW 00:10:12 10° N visible
26 Jan - 08:55:32 10° NNE 08:59:37 23° ENE 09:03:57 10° ESE daylight
26 Jan - 10:37:26 10° NW 10:42:03 31° WSW 10:47:00 10° S daylight
26 Jan - 23:19:53 10° SW 23:24:12 51° WNW 23:28:23 10° N night (unlit)
27 Jan - 08:15:10 10° NE 08:16:57 12° ENE 08:18:46 10° E daylight
27 Jan - 09:54:23 10° NNW 09:59:35 61° WSW 10:05:13 10° S daylight
27 Jan - 22:37:18 10° SSW 22:41:43 67° ESE 22:45:59 10° NNE night (unlit)
28 Jan - 09:11:51 10° NNW 09:17:05 69° ENE 09:22:47 10° SSE daylight
28 Jan - 21:55:26 10° S 21:59:17 29° ESE 22:03:00 10° NE night (unlit)
28 Jan - 23:39:22 10° W 23:41:42 14° WNW 23:44:01 10° NNW night (unlit)
